Flag for U.S.A. Weather past 2 weeks in Menominee, Michigan, U.S.A.

Now
27 °F

Partly sunny.


Feels Like: 19 °F
Forecast: 18 / 26 °F
Wind: 7 mph from Southeast

Location: Menominee Weather Reporting Station

Current Time: Jan 27, 2015 at 1:06:30 PM

Latest Report: Jan 27, 2015 at 12:35 PM


Visibility: 10 mi

Pressure: 30.22 "Hg

Humidity: 74%

Dew point: 19 °F

Location of MenomineeLocation

Historic Weather in Menominee — Graph

°F

Menominee temperature yesterday

Maximum temperature yesterday: 25 °F (at 12:15 PM)
Minimum temperature yesterday: 5 °F (at 12:15 AM)
Average temperature yesterday: 17 °F

Past Weeks' High & Low Weather Summary

 TemperatureHumidityPressure
High39 °F (Jan 17, 12:35 PM)100% (Jan 27, 3:15 AM)30.78 "Hg (Jan 27, 3:15 AM)
Low-4 °F (Jan 13, 1:35 AM)45% (Jan 16, 11:15 AM)29.39 "Hg (Jan 17, 2:35 PM)
Average22 °F74%30.02 "Hg
* Reported Jan 12 11:15 AM — Jan 27 11:55 AM, Menominee, Weather by CustomWeather, © 2014

Note: Actual official high and low records may vary slightly from our data, if they occured in-between our weather recording intervals... More about our weather records

Advertising

Menominee weather history for previous 24 hours

 ConditionsComfort  
Time TempWeatherWind HumidityBarometerVisibility
11:55 AM
Jan 27
27 °FOvercast.6 mph74%30.22 "Hg10 mi
11:35 AM27 °FOvercast.6 mph74%30.22 "Hg10 mi
11:15 AM27 °FMore clouds than sun.5 mph74%30.22 "Hg10 mi
10:55 AM25 °FOvercast.No wind80%30.22 "Hg10 mi
10:35 AM25 °FOvercast.5 mph80%30.22 "Hg10 mi
10:15 AM23 °FOvercast.6 mph86%30.21 "Hg10 mi
9:55 AM21 °FOvercast.7 mph86%30.20 "Hg10 mi
9:35 AM21 °FOvercast.8 mph86%30.19 "Hg10 mi
9:15 AM21 °FOvercast.5 mph93%30.19 "Hg10 mi
8:55 AM21 °FOvercast.7 mph93%30.18 "Hg10 mi
8:35 AM19 °FOvercast.No wind93%30.17 "Hg10 mi
8:15 AM18 °FOvercast.3 mph93%30.16 "Hg10 mi
7:55 AM19 °FOvercast.No wind86%30.16 "Hg10 mi
7:35 AM19 °FOvercast.No wind93%30.15 "Hg10 mi
7:15 AM18 °FOvercast.No wind93%30.15 "Hg10 mi
6:55 AM19 °FOvercast.No wind93%30.15 "Hg10 mi
6:35 AM19 °FOvercast.No wind93%30.14 "Hg10 mi
6:15 AM19 °FOvercast.No wind93%30.13 "Hg10 mi
5:55 AM19 °FOvercast.No wind93%30.12 "Hg10 mi
5:35 AM19 °FOvercast.No wind86%30.11 "Hg10 mi
5:15 AM19 °FOvercast.No wind93%30.11 "Hg10 mi
4:55 AM19 °FOvercast.No wind93%30.10 "Hg10 mi
4:35 AM18 °FOvercast.No wind100%30.09 "Hg10 mi
4:15 AM18 °FMostly cloudy.No wind93%30.08 "Hg10 mi
3:55 AM18 °FMostly cloudy.No wind93%30.07 "Hg10 mi
3:35 AM18 °FOvercast.No wind93%30.07 "Hg10 mi
3:15 AM18 °FOvercast.3 mph100%30.06 "Hg10 mi
2:55 AM19 °FMostly cloudy.5 mph86%30.05 "Hg10 mi
2:35 AM19 °FOvercast.6 mph93%30.05 "Hg10 mi
2:15 AM19 °FMostly cloudy.6 mph93%30.04 "Hg10 mi
1:55 AM19 °FPartly cloudy.5 mph93%30.03 "Hg10 mi
1:35 AM19 °FPassing clouds.5 mph93%30.02 "Hg10 mi
1:15 AM21 °FPassing clouds.7 mph86%30.01 "Hg10 mi
12:55 AM21 °FPassing clouds.6 mph86%30.00 "Hg8 mi
12:35 AM21 °FClear.5 mph93%30.00 "Hg6 mi
12:15 AM21 °FClear.7 mph93%30.00 "Hg5 mi
11:55 PM
Jan 26
23 °FPassing clouds.7 mph86%29.99 "Hg2 mi
11:35 PM21 °FMostly cloudy.7 mph93%29.99 "Hg2 mi
11:15 PM21 °FMostly cloudy.7 mph93%29.98 "Hg2 mi
10:55 PM21 °FPartly cloudy.7 mph93%29.98 "Hg2 mi
10:15 PM23 °FOvercast.8 mph86%29.96 "Hg2 mi
9:55 PM25 °FOvercast.7 mph80%29.95 "Hg4 mi
9:35 PM25 °FOvercast.7 mph80%29.95 "Hg5 mi
8:55 PM23 °FOvercast.9 mph86%29.93 "Hg10 mi
8:35 PM25 °FOvercast.9 mph80%29.93 "Hg9 mi
8:15 PM25 °FOvercast.10 mph80%29.93 "Hg10 mi
7:55 PM25 °FOvercast.9 mph80%29.92 "Hg9 mi
7:35 PM25 °FOvercast.9 mph80%29.92 "Hg10 mi
7:15 PM25 °FOvercast.10 mph80%29.92 "Hg8 mi
6:55 PM25 °FOvercast.8 mph86%29.92 "Hg9 mi
6:35 PM25 °FOvercast.9 mph80%29.91 "Hg7 mi
5:55 PM25 °FOvercast.15 mph86%29.89 "Hg10 mi
5:35 PM25 °FOvercast.14 mph80%29.88 "Hg10 mi
5:15 PM25 °FLow clouds.13 mph86%29.88 "Hg10 mi
4:55 PM25 °FMostly cloudy.10 mph86%29.87 "Hg10 mi
4:35 PM25 °FOvercast.6 mph86%29.87 "Hg10 mi
4:15 PM25 °FOvercast.8 mph86%29.87 "Hg10 mi
3:55 PM25 °FOvercast.7 mph80%29.86 "Hg10 mi
3:35 PM25 °FOvercast.6 mph80%29.86 "Hg10 mi
3:15 PM25 °FMostly cloudy.7 mph86%29.86 "Hg10 mi
2:55 PM25 °FMostly cloudy.9 mph86%29.85 "Hg9 mi
2:35 PM25 °FMostly cloudy.9 mph86%29.84 "Hg7 mi
2:15 PM25 °FMostly cloudy.10 mph86%29.84 "Hg5 mi
1:55 PM25 °FMostly cloudy.10 mph86%29.84 "Hg8 mi
1:35 PM25 °FMostly cloudy.9 mph80%29.84 "Hg8 mi
1:15 PM25 °FBroken clouds.12 mph74%29.85 "Hg10 mi
Weather by CustomWeather, © 2014

See weather overviewHow to use our weather pages